Weather History for Milwaukee, WI

Change the Weather History Date:

Friday, October 5, 2012

  Actual Average Record
Temperature  
Mean Temperature 46 °F 55 °F  
Max Temperature 52 °F 63 °F 87 °F (1997)
Min Temperature 40 °F 47 °F 26 °F (1876)
Degree Days  
Heating Degree Days 19 10  
Month to date heating degree days 41 48  
Since 1 July heating degree days 179 200  
Cooling Degree Days 0 0  
Month to date cooling degree days 0 3  
Year to date cooling degree days 1041 637  
Moisture  
Dew Point 28 °F    
Average Humidity 50    
Maximum Humidity 65    
Minimum Humidity 35    
Precipitation  
Precipitation 0.00 in 0.09 in 1.64 in (1959)
Month to date precipitation 0.02 0.45  
Year to date precipitation 22.18 27.81  
Snow  
Snow 0.00 in 0.00 in T in (1935)
Month to date snowfall 0.0 0.0  
Since 1 July snowfall 0.0 0.0  
Since 1 September snowfall 0.0 0.0  
Snow Depth 0.00 in    
Sea Level Pressure  
Sea Level Pressure 30.07 in    
Wind  
Wind Speed 12 mph (West)    
Max Wind Speed 18 mph    
Max Gust Speed 25 mph    
Visibility 10 miles    
Events      
T = Trace of Precipitation, MM = Missing Value Source: NWS Daily Summary

Daily Weather History Graph

Daily Weather History Graph

Search for Another Location

Airport:

Trip Planner

Search our weather history database for the weather conditions in past years. The results will help you decide how hot, cold, wet, or windy it might be!

Date:

Astronomy

Oct. 05, 2012 Rise Set
Actual Time 6:54 AM CDT 6:24 PM CDT
Civil Twilight 6:25 AM CDT 6:53 PM CDT
Nautical Twilight 5:52 AM CDT 7:26 PM CDT
Astronomical Twilight 5:19 AM CDT 7:59 PM CDT
Moon 9:41 PM CDT (10/5) 12:08 PM CDT (10/5)
Length of Visible Light 12h 27m
Length of Day
11h 30m
Waning Gibbous, 74% of the Moon is Illuminated
Oct 5
Waning Gibbous
Oct 8
Last Quarter
Oct 15
New
Oct 21
First Quarter
Oct 29
Full

Hourly Weather History & Observations

Time (CDT) Temp. Windchill Dew Point Humidity Pressure Visibility Wind Dir Wind Speed Gust Speed Precip Events Conditions
12:52 AM 48.9 °F - 33.1 °F 54% 30.08 in 10.0 mi WNW 9.2 mph - N/A   Clear
1:52 AM 46.9 °F - 32.0 °F 56% 30.10 in 10.0 mi WNW 10.4 mph - N/A   Clear
2:52 AM 44.6 °F 39.7 °F 32.0 °F 61% 30.11 in 10.0 mi West 9.2 mph - N/A   Clear
3:52 AM 44.1 °F 38.6 °F 30.0 °F 58% 30.12 in 10.0 mi West 10.4 mph - N/A   Clear
4:52 AM 42.1 °F 37.1 °F 30.0 °F 62% 30.12 in 10.0 mi West 8.1 mph - N/A   Partly Cloudy
5:52 AM 41.0 °F 35.8 °F 30.0 °F 65% 30.11 in 10.0 mi West 8.1 mph - N/A   Partly Cloudy
6:52 AM 41.0 °F 35.2 °F 28.9 °F 62% 30.11 in 10.0 mi West 9.2 mph - N/A   Scattered Clouds
7:52 AM 41.0 °F 34.3 °F 28.9 °F 62% 30.11 in 10.0 mi West 11.5 mph 17.3 mph N/A   Partly Cloudy
8:52 AM 43.0 °F 36.4 °F 30.0 °F 60% 30.11 in 10.0 mi West 12.7 mph - N/A   Partly Cloudy
9:52 AM 44.6 °F 37.2 °F 30.2 °F 57% 30.09 in 10.0 mi West 17.3 mph 20.7 mph N/A   Mostly Cloudy
10:52 AM 48.0 °F - 30.9 °F 52% 30.10 in 10.0 mi West 13.8 mph - N/A   Mostly Cloudy
11:52 AM 50.0 °F - 28.4 °F 43% 30.07 in 10.0 mi West 12.7 mph 18.4 mph N/A   Mostly Cloudy
12:52 PM 51.1 °F - 28.9 °F 43% 30.07 in 10.0 mi WSW 12.7 mph - N/A   Mostly Cloudy
1:52 PM 51.8 °F - 28.4 °F 41% 30.03 in 10.0 mi WSW 16.1 mph - N/A   Overcast
2:52 PM 51.1 °F - 28.0 °F 41% 30.04 in 10.0 mi West 11.5 mph - N/A   Overcast
3:52 PM 51.1 °F - 25.0 °F 36% 30.03 in 10.0 mi West 15.0 mph 24.2 mph N/A   Overcast
4:52 PM 50.0 °F - 25.0 °F 38% 30.03 in 10.0 mi West 15.0 mph 21.9 mph N/A   Overcast
5:52 PM 48.9 °F - 24.1 °F 38% 30.05 in 10.0 mi West 13.8 mph - N/A   Overcast
6:52 PM 46.9 °F - 24.1 °F 41% 30.04 in 10.0 mi West 17.3 mph 23.0 mph N/A   Mostly Cloudy
7:52 PM 46.0 °F 40.6 °F 23.0 °F 40% 30.04 in 10.0 mi West 11.5 mph - N/A   Mostly Cloudy
8:52 PM 45.0 °F 38.2 °F 24.1 °F 44% 30.04 in 10.0 mi West 15.0 mph - N/A   Mostly Cloudy
9:52 PM 44.1 °F 38.6 °F 24.1 °F 45% 30.04 in 10.0 mi West 10.4 mph 18.4 mph N/A   Partly Cloudy
10:52 PM 43.0 °F 37.2 °F 24.1 °F 47% 30.04 in 10.0 mi West 10.4 mph - N/A   Partly Cloudy
11:52 PM 41.0 °F 35.2 °F 25.0 °F 53% 30.03 in 10.0 mi West 9.2 mph - N/A   Partly Cloudy